This is the latest recevied weather packets stored in our database for station/object R2AJV-13. If no packets are shown the sender has not sent any weather packets the latest 10 day(s).
| Time | Temp. | Humidity | Pressure | Rain* | Wind** | Luminosity | Snow |
|---|---|---|---|---|---|---|---|
| 1787373961 | 14.44° C | 93% | 1002 hPa | 0 mm | - | - | - |
| 1787373052 | 13.89° C | 99% | 1001.9 hPa | 0 mm | - | - | - |
| 1787372139 | 12.78° C | 99% | 1001.8 hPa | 0 mm | - | - | - |
| 1787371228 | 12.22° C | 99% | 1001.9 hPa | 0 mm | - | - | - |
| 1787370318 | 11.67° C | 99% | 1001.8 hPa | 0 mm | - | - | - |
| 1787369473 | 9.44° C | 99% | 1001.9 hPa | 0 mm | - | - | - |
| 1787368561 | 8.89° C | 99% | 1001.8 hPa | 0 mm | - | - | - |
| 1787367652 | 8.33° C | 99% | 1001.6 hPa | 0 mm | - | - | - |
| 1787366741 | 8.33° C | 99% | 1001.6 hPa | 0 mm | - | - | - |
| 1787365836 | 8.33° C | 99% | 1001.6 hPa | 0 mm | - | - | - |
| 1787364926 | 8.33° C | 99% | 1001.6 hPa | 0 mm | - | - | - |
| 1787364074 | 8.33° C | 99% | 1001.5 hPa | 0 mm | - | - | - |
| 1787363165 | 8.33° C | 99% | 1001.5 hPa | 0 mm | - | - | - |
| 1787362253 | 8.89° C | 99% | 1001.3 hPa | 0 mm | - | - | - |
| 1787361349 | 8.33° C | 99% | 1001.2 hPa | 0 mm | - | - | - |
| 1787360465 | 8.89° C | 99% | 1001.1 hPa | 0 mm | - | - | - |
| 1787359560 | 8.89° C | 99% | 1001.1 hPa | 0 mm | - | - | - |
| 1787358650 | 8.89° C | 99% | 1001.1 hPa | 0 mm | - | - | - |
| 1787357740 | 8.89° C | 99% | 1000.9 hPa | 0 mm | - | - | - |
| 1787356828 | 9.44° C | 99% | 1000.9 hPa | 0 mm | - | - | - |
* Rain latest hour (hover to see other rain measurements)
** Current wind speed in m/s (hover to see current wind gust speed)